Location: Newark
(60.6561°N, 46.5772°E)
Time: 17:29:44
(UTC+00:00)

Transit 2A Rocket - Visible Passes

Search period start: 20 October 2019 00:00
Search period end: 30 October 2019 00:00
Orbit: 594 x 909 km, 66.7° (Epoch: 20 October)

Date Brightness Start Highest point End Pass type
(mag) Time Alt. Az. Time Alt. Az. Time Alt. Az.
20 Oct 6.8 01:54:52 10° S 01:58:59 27° ESE 02:02:50 10° ENE visible
21 Oct 7.2 01:13:18 10° SSE 01:16:42 19° ESE 01:19:57 10° ENE visible
21 Oct 5.1 02:53:50 10° SW 02:58:38 68° SE 03:03:07 10° NE visible
22 Oct 7.5 00:32:22 10° SE 00:34:31 13° ESE 00:36:35 10° E visible
22 Oct 5.6 02:11:31 10° SSW 02:16:11 49° SE 02:20:32 10° ENE visible
23 Oct 6.2 01:29:25 10° S 01:33:47 34° SE 01:37:54 10° ENE visible
24 Oct 6.7 00:47:42 10° S 00:51:28 24° ESE 00:55:08 10° ENE visible
24 Oct 4.7 02:28:46 10° SW 02:33:34 83° SE 02:38:02 10° NE visible
25 Oct 7.1 00:07:04 13° SE 00:09:14 17° ESE 00:12:07 10° ENE visible
25 Oct 5.1 01:47:00 14° SSW 01:51:04 61° SE 01:55:28 10° NE visible
25 Oct 7.4 23:26:16 10° ESE 23:27:04 11° ESE 23:28:16 10° E visible
26 Oct 5.6 01:06:12 24° S 01:08:38 43° SE 01:12:53 10° ENE visible
26 Oct 4.7 02:46:25 10° WSW 02:51:06 64° NNW 02:55:30 10° NE visible
27 Oct 6.1 00:25:18 28° SE 00:26:16 30° ESE 00:30:12 10° ENE visible
27 Oct 4.6 02:05:14 20° WSW 02:08:31 82° NW 02:12:57 10° NE visible
27 Oct 6.7 23:44:18 21° ESE 23:44:18 21° ESE 23:47:23 10° ENE visible
28 Oct 4.7 01:24:14 38° SW 01:25:58 75° SE 01:30:25 10° NE visible
28 Oct 5.0 03:04:19 10° W 03:08:47 46° NNW 03:13:02 10° ENE visible
28 Oct 7.4 23:03:14 13° E 23:03:14 13° E 23:04:12 10° E visible
29 Oct 5.1 00:43:09 52° SSE 00:43:30 54° SE 00:47:51 10° NE visible
29 Oct 4.8 02:23:04 20° W 02:26:07 55° NNW 02:30:26 10° NE visible
